Theta_e
322 322 322 322 322 322 323 323 323 322 322 323 323 323 323 324 323 321 310 316 319 330 324 316 315 314 315 313 313 312 302 299 301 301 302 306 304 308 310 307 309 310 310 313 314
321 321 321 321 322 322 322 322 323 323 323 323 323 323 323 323 317 312 320 324 333 327 315 313 311 312 310 310 311 307 302 302 306 305 303 305 305 306 306 306 307 309 312 314 313
320 321 321 321 321 322 322 323 323 323 323 323 323 323 322 322 311 308 326 330 333 325 316 315 313 311 307 310 309 307 302 305 306 307 306 304 305 307 305 303 306 307 310 312 313
321 320 321 321 321 322 323 323 323 323 323 323 323 322 322 318 300 310 329 331 332 319 314 312 310 307 305 304 308 303 306 306 307 308 305 304 307 304 305 306 309 310 311 311 311
321 321 321 321 321 322 322 323 323 324 323 323 322 322 318 306 306 324 330 331 320 314 311 309 307 307 303 304 305 304 304 306 307 307 306 306 304 304 304 308 310 310 310 310 310
321 320 320 320 321 322 322 323 323 323 323 322 322 321 312 302 312 323 326 322 315 313 311 311 308 309 305 304 302 305 304 304 305 305 305 302 303 304 305 308 308 308 308 309 309
320 320 320 320 321 322 322 323 323 322 321 322 322 318 307 307 315 321 321 317 315 313 310 312 312 307 307 303 306 303 299 301 302 303 303 303 299 300 306 308 306 306 307 308 309
320 319 319 320 321 321 322 322 321 321 321 320 322 316 305 309 315 314 314 311 314 313 312 311 311 308 305 307 302 299 300 295 302 301 302 301 295 302 306 304 304 305 306 307 308
320 319 320 320 320 321 321 320 319 321 321 321 316 311 303 310 307 310 311 307 310 310 309 308 309 305 305 299 296 299 293 296 298 304 300 299 296 302 305 304 303 304 305 306 307
320 320 320 320 320 321 320 315 319 319 320 318 312 303 304 303 307 307 309 309 306 307 305 304 304 300 300 297 290 295 295 297 296 300 299 297 297 301 303 303 302 303 304 305 306
321 321 321 321 321 322 319 317 315 311 313 310 311 307 311 307 308 305 307 305 306 304 298 302 297 294 298 300 299 297 295 294 297 300 298 298 297 299 302 302 302 302 304 305 306
321 321 322 322 321 321 318 315 311 309 306 315 312 308 308 306 303 303 307 301 300 297 300 297 294 299 301 300 296 295 294 293 297 300 299 296 295 298 300 301 302 303 304 304 304
321 321 321 321 321 321 317 311 312 310 304 308 306 304 304 305 305 305 304 302 299 298 297 295 299 301 297 296 295 295 294 294 294 297 297 295 293 297 301 303 304 303 303 302 301
320 320 320 320 317 321 314 312 312 310 300 301 299 300 301 303 298 301 303 302 299 296 298 297 298 295 295 294 295 291 297 295 293 291 287 294 285 294 299 301 300 300 299 299 299
316 317 320 316 322 318 312 312 311 307 289 299 296 304 302 298 298 298 303 301 296 296 296 295 295 294 292 294 296 293 295 293 292 290 290 291 288 294 298 296 297 297 297 297 297
311 315 317 320 323 317 314 312 311 297 287 298 297 296 295 296 296 298 298 300 300 296 296 297 297 295 296 296 296 296 293 293 294 290 285 292 291 292 295 296 294 295 296 296 296
308 309 316 320 316 320 319 317 298 289 301 298 295 295 296 295 294 295 296 295 296 292 293 297 295 299 296 293 295 293 290 287 286 285 285 291 290 292 298 297 296 295 295 296 296
306 308 312 319 321 320 319 305 288 295 296 302 299 297 297 298 298 296 297 296 300 297 293 290 287 294 294 294 293 292 293 288 281 283 286 292 286 293 300 296 296 296 295 295 294
305 311 310 314 320 320 308 292 291 295 299 298 299 295 295 298 298 298 297 296 298 297 290 290 290 295 293 294 296 293 290 295 287 288 283 287 292 297 301 296 295 295 294 292 292
305 305 306 314 319 314 299 292 294 299 300 300 293 296 291 294 294 294 294 297 296 296 297 294 287 296 297 294 295 291 293 286 286 278 278 284 288 289 292 293 294 292 291 290 291
303 297 305 314 316 303 290 291 293 298 299 297 294 293 293 292 293 293 293 296 299 295 297 296 291 290 294 291 290 288 287 287 288 286 280 280 285 296 293 293 292 289 289 289 288
300 290 308 314 295 297 292 294 295 296 299 297 297 295 293 293 291 291 290 294 300 298 293 296 291 286 288 294 296 295 291 291 283 282 285 284 284 293 292 290 289 288 288 288 288
294 296 307 307 289 292 294 293 296 294 295 294 293 295 295 291 287 290 291 297 298 296 293 295 288 282 284 288 292 290 291 290 289 286 282 279 283 291 289 288 288 287 287 286 286
294 288 295 299 299 293 291 290 290 296 295 295 293 294 292 289 291 288 289 294 295 295 294 295 289 284 280 282 287 285 287 289 287 282 283 283 284 289 291 291 289 286 286 286 285
293 289 293 288 291 292 292 289 287 288 292 293 290 290 288 285 286 286 289 290 292 291 291 290 282 284 285 286 286 285 284 285 283 284 280 283 283 286 289 289 286 284 284 284 285
288 287 290 291 292 291 290 288 287 288 288 286 287 289 290 286 287 283 286 286 285 288 286 289 280 282 278 283 283 280 282 283 283 284 283 283 282 289 287 284 284 284 282 282 282
292 293 290 286 287 287 288 288 286 289 287 288 288 286 284 287 289 288 288 287 287 284 283 282 280 278 274 279 279 274 279 281 282 284 283 278 282 282 282 281 281 281 282 282 282
Wind_Speed
6 6 7 7 7 8 8 8 9 9 9 10 10 11 11 11 11 6 8 1 2 13 6 8 7 5 5 4 3 3 6 8 9 7 3 4 6 6 3 10 9 7 12 10 4
4 5 5 5 6 6 6 7 7 9 10 11 11 11 12 12 7 10 3 5 12 12 10 11 8 7 6 3 4 7 8 9 6 9 9 10 9 12 11 13 16 15 17 13 9
4 4 5 6 6 7 7 8 8 9 10 10 11 11 12 11 8 2 3 7 13 12 7 9 5 8 9 5 7 6 11 13 13 11 14 13 13 13 13 18 17 14 10 12 11
3 4 5 6 8 8 9 9 10 10 11 10 10 11 12 5 7 3 2 8 10 10 7 7 7 6 7 10 9 11 14 16 18 10 7 13 17 13 15 25 19 20 19 17 15
4 5 5 7 8 9 10 11 12 11 11 10 9 8 6 6 7 5 7 9 11 9 10 10 10 10 12 8 9 15 16 17 14 15 14 17 22 19 23 22 23 21 18 17 16
4 5 5 7 8 10 11 12 13 12 12 11 7 5 5 10 3 4 6 8 8 12 11 12 5 9 13 13 12 12 12 17 18 17 15 16 23 17 22 16 19 14 16 15 16
4 5 6 8 10 11 13 14 15 14 11 7 6 5 6 11 3 4 5 2 3 7 9 10 7 7 5 10 8 10 15 17 20 20 14 6 19 17 20 14 16 17 17 16 16
5 6 7 8 10 12 13 15 13 8 6 3 8 5 8 2 3 3 4 3 2 3 5 3 6 9 8 6 6 9 14 15 12 2 2 8 18 18 10 11 14 17 20 20 22
5 5 7 9 10 12 13 12 1 4 5 7 5 5 5 2 1 2 2 2 4 4 2 3 5 8 8 12 13 14 16 20 16 15 3 12 12 13 18 20 20 23 24 20 21
5 5 7 9 11 13 14 4 4 4 5 4 2 5 4 2 3 2 2 5 2 7 5 6 6 9 11 12 15 18 18 20 14 10 11 15 20 20 22 21 23 23 21 18 16
7 6 7 8 11 12 10 5 5 5 6 7 9 9 9 3 2 3 0 5 4 7 6 8 8 11 15 16 20 22 23 25 21 19 23 24 24 19 20 23 25 20 17 11 9
7 7 7 8 10 12 6 3 4 3 10 11 11 8 3 2 4 4 4 6 5 8 5 4 12 16 16 17 13 18 22 23 21 17 16 18 24 25 24 24 21 17 12 5 10
6 5 6 7 8 5 4 4 3 2 7 3 2 3 1 4 4 1 4 3 8 11 10 15 15 15 12 15 18 20 19 22 25 20 19 20 20 14 8 14 10 8 10 17 15
5 3 4 4 4 2 3 3 1 1 7 5 3 3 2 2 3 0 2 3 4 6 5 9 2 4 10 14 17 19 16 15 14 13 12 5 10 15 19 13 12 14 16 15 15
1 1 3 3 2 2 5 3 1 3 8 2 4 2 2 3 4 3 2 5 5 5 5 2 5 5 8 9 11 14 6 9 9 11 15 13 11 4 5 8 16 13 14 15 15
6 5 2 3 2 4 5 4 3 5 8 2 3 3 3 4 3 3 2 4 5 4 10 13 3 4 5 8 8 5 10 14 16 8 9 13 14 6 3 8 13 13 12 12 12
5 4 3 2 3 5 3 3 5 6 3 5 1 3 2 3 4 7 6 7 5 9 12 11 12 9 4 7 8 7 8 6 6 7 8 5 7 9 11 8 9 10 10 10 11
5 3 3 2 2 2 4 4 8 3 8 4 3 4 4 1 6 5 7 14 11 5 10 10 12 6 9 7 4 6 3 3 6 8 15 15 10 10 3 12 12 10 11 10 10
1 1 1 2 4 3 5 8 6 9 12 10 9 11 15 12 6 7 12 16 10 4 7 9 6 4 4 2 3 4 5 5 4 8 5 10 21 19 14 13 10 10 9 8 8
4 1 2 2 6 4 6 12 10 7 3 7 14 11 13 9 12 8 9 4 2 1 4 3 9 4 3 2 8 5 4 5 5 7 15 14 18 13 9 5 7 6 7 9 9
4 2 3 4 5 5 9 9 9 9 5 6 12 17 15 13 11 13 8 1 3 4 1 4 4 5 5 7 12 3 5 5 4 5 11 13 9 5 10 5 8 5 5 6 7
3 5 4 6 6 5 10 5 2 7 5 10 5 12 15 12 11 15 15 15 3 2 5 7 4 9 22 21 19 14 16 17 10 8 9 12 12 9 10 8 3 2 3 5 4
5 3 2 2 8 11 9 8 11 7 10 6 7 7 5 11 7 11 13 3 8 4 5 5 3 6 8 13 1 5 5 7 12 5 14 16 11 7 8 6 3 6 3 2 3
4 5 3 3 8 8 14 13 14 5 10 11 8 7 9 12 11 8 7 2 5 4 3 1 7 12 13 18 21 21 22 17 11 7 12 11 15 21 18 10 5 4 5 4 2
2 3 0 7 10 13 11 4 10 11 7 4 6 16 12 10 11 16 13 10 6 2 4 5 10 14 17 19 18 15 17 24 22 19 20 21 23 23 20 15 6 3 4 4 5
2 2 2 2 7 16 15 11 16 11 7 8 12 7 9 7 8 6 10 7 11 6 4 5 10 11 16 19 20 23 25 27 23 23 25 24 27 21 9 2 4 3 4 7 9
2 1 3 4 7 8 12 15 9 11 3 6 6 5 7 9 4 3 3 5 8 5 6 6 6 6 17 16 16 15 22 21 25 25 25 23 16 7 6 3 4 6 9 10 11
Wind_Direction
48 44 39 37 29 25 14 11 4 356 348 340 338 337 336 335 302 230 260 35 127 157 190 154 188 189 210 209 236 268 251 261 267 266 282 146 267 153 294 277 249 240 276 320 77
22 20 19 15 7 4 355 349 345 342 338 334 332 331 330 334 284 270 119 128 142 168 175 184 193 192 219 236 213 236 250 276 289 285 273 297 280 294 290 268 269 256 245 255 215
351 352 350 348 341 337 335 332 328 326 324 323 324 322 321 311 286 69 110 145 166 188 220 221 253 210 244 249 211 214 248 270 285 278 286 285 285 275 262 271 270 280 292 298 289
313 326 328 328 326 327 325 322 316 313 314 312 313 315 318 259 299 80 14 164 167 195 191 186 202 219 250 233 246 263 252 270 285 298 286 271 285 270 261 265 284 287 292 293 280
305 315 322 321 321 321 320 315 311 307 306 302 300 307 283 236 263 104 125 137 166 196 204 207 224 240 257 268 285 246 272 276 280 277 268 279 270 268 269 282 282 284 280 272 263
297 310 318 316 316 316 316 313 311 306 302 294 275 284 249 260 70 111 130 158 188 200 212 217 230 256 287 278 260 305 296 282 279 272 263 260 273 282 270 279 280 275 278 269 264
295 308 321 322 317 317 316 317 315 309 303 284 234 226 244 261 44 117 147 170 219 231 233 231 267 225 322 259 292 282 293 292 279 265 256 278 271 247 270 263 273 290 283 290 288
296 309 317 318 315 315 317 317 314 313 311 240 181 218 262 44 54 169 179 130 181 205 263 314 234 263 256 284 249 270 271 276 289 7 154 200 277 293 328 335 291 281 289 289 286
286 299 310 314 315 316 321 322 306 48 104 137 192 246 266 149 163 38 274 237 145 159 104 150 205 238 224 245 272 247 270 281 293 304 295 212 277 291 314 303 289 284 287 293 293
258 281 301 313 319 319 322 273 185 183 198 235 264 231 169 24 77 79 57 174 161 153 151 193 211 230 233 249 253 278 283 295 285 281 245 258 260 276 281 281 274 274 287 293 296
261 273 292 312 317 322 323 235 231 200 217 293 300 285 309 73 196 76 24 169 159 205 221 191 225 223 252 254 260 277 284 282 283 288 291 289 291 291 290 283 268 281 285 294 321
255 272 291 304 311 316 285 17 43 2 291 264 266 274 248 305 283 129 184 210 213 245 190 195 245 262 279 282 289 282 280 281 283 281 289 294 290 295 279 275 280 285 299 344 64
252 286 305 302 310 288 42 53 353 306 255 224 216 256 179 224 243 191 227 199 224 254 228 261 284 307 290 276 270 265 274 284 291 305 300 288 284 265 267 274 306 1 85 74 62
184 233 281 305 279 92 115 106 226 287 271 164 173 126 160 221 187 186 230 260 193 266 255 260 11 321 293 275 272 283 295 310 307 310 297 20 289 302 275 270 94 71 71 60 51
96 304 267 286 10 233 76 96 83 230 289 78 126 89 129 251 97 155 192 175 232 215 235 99 202 222 262 256 272 280 348 317 300 277 283 270 254 274 264 249 113 92 64 58 56
53 24 302 224 239 89 139 159 235 225 240 139 109 175 195 183 166 107 259 269 350 241 224 258 112 229 233 300 245 319 285 275 259 272 258 264 244 285 44 32 99 94 77 66 51
49 10 293 296 18 146 193 224 235 227 147 154 169 193 274 185 194 204 184 194 256 296 274 285 231 209 211 254 208 231 256 290 265 211 264 90 328 258 302 96 124 120 97 81 69
15 322 107 4 96 197 236 220 233 242 246 100 140 165 238 111 245 209 273 272 263 235 278 279 290 179 157 224 315 194 308 221 275 286 303 312 269 266 95 108 107 105 99 88 67
75 69 268 155 160 238 252 231 224 235 246 239 238 268 264 250 251 277 272 276 300 227 247 305 257 89 233 344 284 113 216 223 250 249 264 251 266 270 237 134 128 116 97 77 67
119 155 222 144 173 203 228 245 251 243 289 259 250 248 259 232 239 241 266 72 203 256 226 55 295 276 248 258 221 216 343 230 173 260 264 260 268 256 166 173 128 74 59 40 29
113 184 97 171 170 195 224 230 268 260 259 242 254 262 273 276 269 265 266 231 230 174 45 130 181 272 254 224 263 215 238 218 297 238 258 268 254 233 358 16 122 88 42 27 21
146 202 139 184 182 208 228 219 261 229 215 239 276 261 266 264 269 257 255 253 129 318 251 232 243 260 272 284 285 278 266 261 241 228 222 255 262 8 50 89 59 8 359 15 11
177 127 120 277 208 214 232 235 239 215 211 199 236 232 246 256 261 255 257 334 19 335 351 27 273 287 283 277 270 240 352 338 316 278 261 276 281 72 137 149 207 247 253 284 327
166 161 162 228 263 247 226 237 225 194 249 235 243 260 252 253 250 255 247 124 21 13 59 286 248 244 260 278 302 292 296 283 250 265 291 267 287 287 285 293 225 225 224 239 244
201 183 197 192 222 227 239 237 231 217 226 242 248 238 243 247 251 251 263 285 260 128 267 264 258 272 275 279 283 283 280 275 269 271 267 280 285 286 297 303 327 350 340 291 262
191 172 207 189 184 213 213 224 230 211 193 218 243 224 191 238 233 286 313 260 263 281 262 199 267 290 276 275 275 273 267 265 272 275 271 274 273 279 353 42 261 278 302 310 311
130 167 284 150 190 195 215 224 235 239 195 265 262 220 237 268 327 333 274 274 266 262 257 258 261 276 267 283 291 270 256 262 261 266 272 276 300 341 326 308 322 322 310 313 320